Location: Althorst
(53.6379°N, 10.7715°E)
Time: 02:38:26
(UTC+00:00)

SL-16 R/B - Pass Details

Date: 10 December 2019
Orbit: 843 x 845 km, 71.0° (Epoch: 22 January)

Event Time Altitude Azimuth Distance (km) Brightness Sun altitude
Rises 17:47:30 0° 284° (WNW) 3,409 6.5 -23.8°
Reaches altitude 10° 17:51:01 10° 306° (NW) 2,476 5.2 -24.3°
Maximum altitude 17:54:25 16° 343° (NNW) 2,086 4.3 -24.8°
Enters shadow 17:56:32 13° 8° (N) 2,246 4.3 -25.1°
